Roseburg, OR

5:49 PM PST on November 22, 2019 (GMT -0800)
Roseburg Regional

Weather History for KRBG - September, 2019

Change the Weather History Date:

Friday, September 27, 2019

  Actual Average Record
Temperature  
Mean Temperature 61 °F 62 °F  
Max Temperature 66 °F 75 °F 98 °F (2003)
Min Temperature 55 °F 49 °F 36 °F (1961)
Degree Days  
Heating Degree Days 4 4  
Month to date heating degree days 32 53  
Since 1 July heating degree days 37 74  
Cooling Degree Days 0 1  
Month to date cooling degree days 77 63  
Year to date cooling degree days 680 474  
Growing Degree Days 12 (Base 50)    
Moisture  
Dew Point 49 °F    
Average Humidity 64    
Maximum Humidity 84    
Minimum Humidity 44    
Precipitation  
Precipitation T in 0.05 in 1.45 in (1940)
Month to date precipitation 2.15 0.83  
Year to date precipitation 24.92 20.48  
Sea Level Pressure  
Sea Level Pressure 29.98 in    
Wind  
Wind Speed 7 mph (North)    
Max Wind Speed 17 mph    
Max Gust Speed 22 mph    
Visibility 10 miles    
Events      
T = Trace of Precipitation, MM = Missing Value Source: NWS Daily Summary

Daily Weather History Graph

Daily Weather History Graph

Search for Another Location

Airport or City:

Astronomy

Sep. 27, 2019 Rise Set
Actual Time 7:06 AM PDT 7:01 PM PDT
Civil Twilight 6:37 AM PDT 7:30 PM PDT
Nautical Twilight 6:04 AM PDT 8:03 PM PDT
Astronomical Twilight 5:30 AM PDT 8:37 PM PDT
Moon 5:30 AM PDT (9/27) 6:59 PM PDT (9/27)
Length of Visible Light 12h 52m
Length of Day
11h 55m
Waning Crescent, 1% of the Moon is Illuminated
Sep 27
Waning Crescent
Sep 28
New
Oct 5
First Quarter
Oct 13
Full
Oct 21
Last Quarter

Hourly Weather History & Observations

Time (PDT) Temp. Dew Point Humidity Pressure Visibility Wind Dir Wind Speed Gust Speed Precip Events Conditions
12:53 AM 61.0 °F 55.9 °F 83% 30.00 in 8.0 mi North 11.5 mph - N/A   Overcast
1:33 AM 60.1 °F 53.1 °F 78% 30.01 in 10.0 mi Variable 5.8 mph - N/A   Overcast
1:53 AM 60.1 °F 53.1 °F 78% 30.01 in 10.0 mi WNW 4.6 mph - N/A   Overcast
2:15 AM 59.0 °F 53.1 °F 81% 30.01 in 10.0 mi NW 4.6 mph - N/A   Overcast
2:53 AM 59.0 °F 52.0 °F 78% 30.00 in 10.0 mi WNW 4.6 mph - N/A   Overcast
3:53 AM 59.0 °F 52.0 °F 78% 30.00 in 10.0 mi WNW 5.8 mph - N/A   Overcast
4:53 AM 59.0 °F 52.0 °F 78% 30.01 in 10.0 mi Calm Calm - N/A   Overcast
5:53 AM 60.1 °F 52.0 °F 75% 30.01 in 10.0 mi North 4.6 mph - N/A   Overcast
6:53 AM 59.0 °F 52.0 °F 78% 30.00 in 10.0 mi North 6.9 mph - N/A   Overcast
7:53 AM 60.1 °F 51.1 °F 72% 30.02 in 10.0 mi North 9.2 mph - N/A   Overcast
8:53 AM 60.1 °F 51.1 °F 72% 30.02 in 10.0 mi North 8.1 mph - N/A   Overcast
9:53 AM 60.1 °F 50.0 °F 69% 30.03 in 10.0 mi NNE 6.9 mph - N/A   Overcast
10:53 AM 62.1 °F 48.9 °F 62% 30.04 in 10.0 mi North 9.2 mph - N/A   Mostly Cloudy
11:53 AM 61.0 °F 48.9 °F 64% 30.03 in 10.0 mi NNE 11.5 mph - N/A   Overcast
12:14 PM 61.0 °F 48.9 °F 64% 30.03 in 10.0 mi North 11.5 mph - N/A   Overcast
12:23 PM 61.0 °F 48.9 °F 64% 30.03 in 10.0 mi North 12.7 mph - N/A   Overcast
12:53 PM 61.0 °F 48.9 °F 64% 30.02 in 10.0 mi North 10.4 mph - N/A   Overcast
1:05 PM 61.0 °F 48.9 °F 64% 30.01 in 10.0 mi NNE 6.9 mph - N/A   Overcast
1:19 PM 62.1 °F 48.0 °F 60% 30.00 in 10.0 mi NNE 6.9 mph - N/A   Overcast
1:53 PM 62.1 °F 46.9 °F 58% 29.99 in 10.0 mi NNW 9.2 mph - N/A   Overcast
2:53 PM 64.0 °F 46.0 °F 52% 29.97 in 10.0 mi North 12.7 mph - N/A   Overcast
3:53 PM 66.0 °F 44.1 °F 45% 29.95 in 10.0 mi NNE 12.7 mph 18.4 mph N/A   Clear
4:53 PM 64.9 °F 44.1 °F 47% 29.93 in 10.0 mi NNE 10.4 mph 18.4 mph N/A   Clear
5:53 PM 64.9 °F 43.0 °F 45% 29.92 in 10.0 mi North 6.9 mph - N/A   Clear
6:53 PM 62.1 °F 44.1 °F 52% 29.91 in 10.0 mi NE 3.5 mph - N/A   Mostly Cloudy
7:53 PM 61.0 °F 42.1 °F 50% 29.91 in 10.0 mi NNW 8.1 mph - N/A   Overcast
8:53 PM 59.0 °F 44.1 °F 58% 29.91 in 10.0 mi NW 5.8 mph - N/A   Overcast
9:53 PM 57.9 °F 45.0 °F 62% 29.90 in 10.0 mi Calm Calm - N/A   Overcast
10:53 PM 57.9 °F 45.0 °F 62% 29.89 in 10.0 mi West 3.5 mph - N/A   Overcast
11:53 PM 55.9 °F 46.0 °F 69% 29.88 in 10.0 mi NW 3.5 mph - 0.00 in   Mostly Cloudy